Location: Unspecified
(47.1121°N, 116.3927°W)
Time: 07:41:21
(UTC-07:00)

ISS - Pass Details

Date: 27 May 2019
Orbit: 408 x 418 km, 51.6° (Epoch: 19 June)

Event Time Altitude Azimuth Distance (km) Brightness Sun altitude
Rises 00:28:10 0° 292° (WNW) 2,363 0.4 -21.5°
Reaches altitude 10° 00:30:22 10° 283° (WNW) 1,498 -0.8 -21.6°
Enters shadow 00:31:15 16° 275° (W) 1,182 -1.4 -21.6°
